Regional Weather Roundup
Issued by NWS Green Bay, WI

Home | Current Version | Previous Version | Graphics & Text | Print | Product List | Glossary Off
Versions: 1 2 3 4 5 6 7 8 9 10 11 12 13 14 15 16 17 18 19 20 21 22 23 24 25 26 27 28 29 30 31 32 33 34 35 36 37 38 39 40 41 42 43 44 45 46 47 48 49 50

602
ASUS43 KGRB 100400
RWRGRB

NORTH-CENTRAL AND NORTHEAST WISCONSIN REGIONAL WEATHER ROUNDUP
NATIONAL WEATHER SERVICE GREEN BAY WI
1000 PM CST FRI DEC 09 2016

WIZ005-009-010>012-018-019-100500-
NORTH CENTRAL WISCONSIN

CITY           SKY/WX    TMP DP  RH WIND       PRES   REMARKS
IRONWOOD       FLURRIES   9   4  80 W13       30.39S WCI  -7
MANITOWISH WTR NOT AVBL
ARBOR VITAE    NOT AVBL
EAGLE RIVER    NOT AVBL
LAND O LAKES   NOT AVBL
RHINELANDER    CLOUDY    13   6  74 VRB5      30.34F WCI   5
PHILLIPS       CLOUDY    11   5  77 NW5       30.36S WCI   3
ANTIGO         NOT AVBL
TOMAHAWK       NOT AVBL
MERRILL        NOT AVBL
$$

WIZ013-073-100500-
NORTHEAST WISCONSIN

CITY           SKY/WX    TMP DP  RH WIND       PRES   REMARKS
IRON MOUNTAIN  PTCLDY    12   2  64 W3        30.35S
MARINETTE      CLOUDY    18   6  59 VRB3      30.42S
$$

WIZ017-030-035>037-045-100500-
CENTRAL WISCONSIN

CITY           SKY/WX    TMP DP  RH WIND       PRES   REMARKS
MEDFORD        NOT AVBL
WAUSAU         FLURRIES  15   8  73 W9        30.39S WCI   3
MOSINEE        NOT AVBL
MARSHFIELD     CLOUDY    15   7  70 W6        30.40S WCI   6
WISC RAPIDS    FLURRIES  17  11  77 W8        30.44S WCI   7
STEVENS POINT  NOT AVBL
WAUPACA        NOT AVBL
SHAWANO        NOT AVBL
CLINTONVILLE   NOT AVBL
WAUTOMA        FLURRIES  18  12  77 W7        30.45S WCI   9
$$

WIZ038-039-048-051-100500-
FOX VALLEY

CITY           SKY/WX    TMP DP  RH WIND       PRES   REMARKS
NWS GREEN BAY  PTCLDY    18  10  71 W8        30.43F WCI   8
APPLETON       MOCLDY    18   9  68 W7        30.41F WCI   8
OSHKOSH        CLOUDY    18   9  68 W6        30.44S WCI  10
FOND DU LAC    CLOUDY    18   9  68 SW3       30.45S
$$

WIZ022-050-052-100500-
EAST CENTRAL WISCONSIN

CITY           SKY/WX    TMP DP  RH WIND       PRES   REMARKS
EPHRAIM        NOT AVBL
WASHINGTON ISL NOT AVBL
STURGEON BAY   CLOUDY    19   6  57 NW10      30.41S WCI   7
MANITOWOC      NOT AVBL
SHEBOYGAN      CLOUDY    19  10  68 W3        30.44S
$$

LMZ563-521-522-541>543-100500-
LAKESHORE

STATION/POSITION TIME  TEMP    WIND        PRES    VSBY  WAVE
                       AIR SEA DIR/SP/G                  HT/PER
                 (UTC) (F)     (DEG/KT/KT) (MB)    (MI)  (FT/S)
SHEBOYGAN LKSHOR 0300   20     260/  6/  7 1032.1F
KEWAUNEE LKSHORE 0330   21     300/  7/ 10 1029.7R
ALGOMA MARINA    0321          310/  8/ 13   N/A
NORTHPORT PIER   0340   21     270/  8/ 12 1028.8S
SISTER BAY LKSHO 0305   24     290/ 17/ 21   N/A
CHAMBERS ISLAND  0340   19     280/ 11/ 18 1028.8S
MENOMINEE LKSHOR 0330   19     280/  5/  9 1029.0S
$$




USA.gov is the U.S. government's official web portal to all federal, state and local government web resources and services.